This demonstration page uses our WeatherBlox Daily Observations layout. Learn more.

Left ArrowRight Arrow

39.08367, -84.50855

Hourly Observations for November 21, 2018

Temp ( °F °C ) Dew Point ( °F °C ) Humidity (%) Winds ( mph kmh ) Pressure ( in mb ) Visibility ( mi km ) Precip ( " mm )
12:19 am 00:19 Cloudy 34 1.1 27 -2.8 76 76 WSW 10 17 30.30 1026 10 16 0.00 0.00
12:40 am 00:40 Cloudy 33 0.6 27 -2.8 78 78 WSW 10 17 30.30 1026 10 16 0.00 0.00
12:53 am 00:53 Mostly Cloudy 32 0 27 -2.8 82 82 WSW 10 17 30.28 1025 10 16 0.00 0.00
1:53 am 01:53 Clear 31 -0.6 26 -3.3 82 82 SW 8 13 30.28 1025 10 16 0.00 0.00
2:53 am 02:53 Mostly Cloudy 30 -1.1 26 -3.3 85 85 WSW 9 15 30.29 1026 9 14 0.00 0.00
3:53 am 03:53 Mostly Cloudy 31 -0.6 25 -3.9 79 79 W 9 15 30.30 1026 10 16 0.00 0.00
4:53 am 04:53 Cloudy 31 -0.6 26 -3.3 82 82 WSW 9 15 30.30 1026 9 14 0.00 0.00
5:53 am 05:53 Cloudy 31 -0.6 26 -3.3 82 82 SW 8 13 30.30 1026 9 14 0.00 0.00
6:53 am 06:53 Cloudy 31 -0.6 26 -3.3 82 82 SSW 12 19 30.31 1026 8 13 0.00 0.00
7:15 am 07:15 Partly Cloudy 30 -1.1 26 -3.3 85 85 SW 12 19 30.33 1027 8 13 0.00 0.00
7:53 am 07:53 Sunny 30 -1.1 26 -3.3 85 85 SSW 8 13 30.31 1027 7 11 0.00 0.00
8:53 am 08:53 Hazy 32 0 27 -2.8 82 82 SSW 10 17 30.33 1027 6 10 0.00 0.00
9:53 am 09:53 Sunny 35 1.7 28 -2.2 76 76 SSW 10 17 30.34 1027 7 11 0.00 0.00
10:53 am 10:53 Sunny 38 3.3 29 -1.7 70 70 SW 8 13 30.33 1027 9 14 0.00 0.00
11:53 am 11:53 Mostly Sunny 41 5 30 -1.1 65 65 W 9 15 30.33 1027 10 16 0.00 0.00
12:53 pm 12:53 Sunny 43 6.1 31 -0.6 63 63 W 10 17 30.31 1026 10 16 0.00 0.00
1:53 pm 13:53 Sunny 44 6.7 32 0 63 63 W 6 9 30.30 1026 10 16 0.00 0.00
2:53 pm 14:53 Sunny 45 7.2 32 0 61 61 W 8 13 30.29 1026 10 16 0.00 0.00
3:53 pm 15:53 Sunny 46 7.8 33 0.6 61 61 W 5 7 30.30 1026 10 16 0.00 0.00
4:53 pm 16:53 Partly Cloudy 45 7.2 32 0 61 61 Calm 30.31 1026 10 16 0.00 0.00
5:53 pm 17:53 Cloudy 43 6.1 33 0.6 68 68 NNW 5 7 30.34 1027 10 16 0.00 0.00
6:53 pm 18:53 Cloudy 41 5 33 0.6 73 73 N 5 7 30.36 1028 8 13 0.00 0.00
7:53 pm 19:53 Clear 37 2.8 31 -0.6 79 79 NE 5 7 30.37 1029 8 13 0.00 0.00
8:53 pm 20:53 Clear with Mist and Fog 34 1.1 32 0 92 92 Calm 30.39 1029 6 10 0.00 0.00
9:53 pm 21:53 Clear with Mist and Fog 34 1.1 33 0.6 97 97 Calm 30.39 1029 5 8 0.00 0.00
10:53 pm 22:53 Clear with Mist and Fog 32 0 31 -0.6 96 96 Calm 30.40 1029 3 5 0.00 0.00
11:24 pm 23:24 Clear with Mist and Fog 31 -0.6 31 -0.6 100 100 Calm 30.42 1030 3 4 0.00 0.00
11:32 pm 23:32 Clear with Mist and Fog 32 0 31 -0.6 96 96 Calm 30.42 1030 3 5 0.00 0.00
11:51 pm 23:51 Clear with Mist and Fog 30 -1 30 -1 100 100 Calm 30.42 1030 2 3 0.00 0.00
11:53 pm 23:53 Clear with Mist and Fog 31 -0.6 30 -1.1 96 96 Calm 30.39 1029 3 4 0.00 0.00

Powered by AerisWeather